Racine, WI

5:58 AM CST on January 19, 2018 (GMT -0600)
Batten

Weather History for KRAC - January, 2013

Change the Weather History Date:

Wednesday, January 9, 2013

  Actual Average Record
Temperature  
Mean Temperature 34 °F -  
Max Temperature 42 °F 25 °F 53 °F (2002)
Min Temperature 27 °F 10 °F -13 °F (1962)
Degree Days  
Heating Degree Days 30    
Moisture  
Dew Point 26 °F    
Average Humidity 67    
Maximum Humidity 81    
Minimum Humidity 49    
Precipitation  
Precipitation 0.00 in - - ()
Sea Level Pressure  
Sea Level Pressure 30.24 in    
Wind  
Wind Speed 12 mph (WSW)    
Max Wind Speed 22 mph    
Max Gust Speed 34 mph    
Visibility 10 miles    
Events      
Averages and records for this station are not official NWS values.
T = Trace of Precipitation, MM = Missing Value Source: NWS Daily Summary

Daily Weather History Graph

Daily Weather History Graph

Search for Another Location

Airport or City:

Trip Planner

Search our weather history database for the weather conditions in past years. The results will help you decide how hot, cold, wet, or windy it might be!

Date:

Astronomy

Jan. 09, 2013 Rise Set
Actual Time 7:21 AM CST 4:36 PM CST
Civil Twilight 6:49 AM CST 5:07 PM CST
Nautical Twilight 6:14 AM CST 5:43 PM CST
Astronomical Twilight 5:40 AM CST 6:17 PM CST
Moon 5:00 AM CST (1/9) 2:37 PM CST (1/9)
Length of Visible Light 10h 18m
Length of Day
9h 15m
Waning Crescent, 6% of the Moon is Illuminated
Jan 9
Waning Crescent
Jan 11
New
Jan 18
First Quarter
Jan 26
Full
Feb 3
Last Quarter

Hourly Weather History & Observations

Time (CST) Temp. Windchill Dew Point Humidity Pressure Visibility Wind Dir Wind Speed Gust Speed Precip Events Conditions
12:53 AM 39.0 °F 32.3 °F 28.0 °F 65% 29.96 in 10.0 mi SSW 10.4 mph 18.4 mph N/A   Mostly Cloudy
1:53 AM 39.9 °F 31.4 °F 28.9 °F 65% 29.96 in 10.0 mi SW 16.1 mph 23.0 mph N/A   Clear
2:53 AM 39.0 °F 31.0 °F 30.0 °F 70% 29.98 in 10.0 mi WSW 13.8 mph 23.0 mph N/A   Partly Cloudy
3:53 AM 39.0 °F 30.3 °F 30.0 °F 70% 29.99 in 10.0 mi WSW 16.1 mph 25.3 mph N/A   Clear
4:53 AM 37.0 °F 28.1 °F 30.0 °F 76% 30.02 in 10.0 mi West 15.0 mph 27.6 mph N/A   Clear
5:53 AM 35.1 °F 25.5 °F 28.9 °F 78% 30.07 in 10.0 mi West 15.0 mph 24.2 mph N/A   Clear
6:53 AM 34.0 °F 25.5 °F 28.0 °F 79% 30.11 in 10.0 mi West 11.5 mph 19.6 mph N/A   Clear
7:53 AM 33.1 °F 26.1 °F 27.0 °F 78% 30.14 in 10.0 mi WSW 8.1 mph 18.4 mph N/A   Clear
8:53 AM 36.0 °F 29.0 °F 28.0 °F 73% 30.15 in 10.0 mi WSW 9.2 mph 18.4 mph N/A   Clear
9:53 AM 39.0 °F 30.3 °F 28.0 °F 65% 30.18 in 10.0 mi WSW 16.1 mph 24.2 mph N/A   Clear
10:53 AM 42.1 °F 35.2 °F 27.0 °F 55% 30.18 in 10.0 mi West 12.7 mph 25.3 mph N/A   Clear
12:53 PM 42.1 °F 33.9 °F 24.1 °F 49% 30.24 in 10.0 mi West 17.3 mph 33.4 mph N/A   Clear
1:53 PM 42.1 °F 32.8 °F 25.0 °F 51% 30.26 in 10.0 mi West 21.9 mph 34.5 mph N/A   Clear
2:53 PM 39.9 °F 31.1 °F 24.1 °F 53% 30.30 in 10.0 mi West 17.3 mph 29.9 mph N/A   Clear
3:53 PM 39.0 °F 31.0 °F 24.1 °F 55% 30.35 in 10.0 mi West 13.8 mph 26.5 mph N/A   Clear
4:53 PM 37.0 °F 29.8 °F 24.1 °F 59% 30.39 in 10.0 mi West 10.4 mph - N/A   Clear
5:53 PM 35.1 °F 27.9 °F 24.1 °F 64% 30.42 in 10.0 mi West 9.2 mph - N/A   Clear
6:53 PM 34.0 °F 27.2 °F 24.1 °F 67% 30.45 in 10.0 mi WSW 8.1 mph - N/A   Clear
7:53 PM 34.0 °F 28.8 °F 24.1 °F 67% 30.46 in 10.0 mi West 5.8 mph - N/A   Clear
8:53 PM 30.9 °F 25.2 °F 24.1 °F 76% 30.46 in 10.0 mi WNW 5.8 mph - N/A   Clear
9:53 PM 30.0 °F 24.1 °F 23.0 °F 75% 30.44 in 10.0 mi WNW 5.8 mph - N/A   Clear
10:53 PM 27.0 °F 19.5 °F 21.9 °F 81% 30.45 in 10.0 mi WSW 6.9 mph - N/A   Clear
11:53 PM 28.9 °F 21.9 °F 23.0 °F 78% 30.50 in 10.0 mi SW 6.9 mph - N/A   Clear